Voltar ao catálogo

STARLINK-3975

AtivoComunicaçõesVLEO
NORAD 52620·PAYLOAD·🇺🇸 United States

Lançado May 14, 2022 de Cape Canaveral Space Force Station

Loading…

Próximas Passagens (próximas 24 horas)

TLE

AtualizadoSource: CelesTrak SupGP

Época: Sep 15, 2026, 02:16 UTC

1 52620C 22052Y   26258.09493056  .00044400  00000+0  13473-2 0  2584
2 52620  53.1573 141.3313 0001320  83.6166 133.7282 15.33525951    19

Acompanhe STARLINK-3975 em tempo real com AllMySat

Download on the App Store